weather.gov     
National Weather Service

Regional Weather Roundup
NWS Homepage
This page is being discontinued on March 12, 2014.
The same data is available at this site. Please update your bookmarks.
Thank you, and we apologize for the inconvenience.
Please send an email to SR-SRH.Webmaster@noaa.gov with any concerns.


Current Version
Previous Version:    01  02  03  04  05  06  07  08  09  10  11  12  13  14  15  16  17  18  19  20  21  22  23  24  25  26  27  
[Printable]
299
ASUS45 KGGW 210515
RWRGGW
HOURLY WEATHER ROUNDUP FOR NORTHEAST MONTANA
NATIONAL WEATHER SERVICE GLASGOW MONTANA
1100 PM MDT MON OCT 20 2014

NOTE: "FAIR" INDICATES FEW OR NO CLOUDS BELOW 12,000 FEET WITH NO
SIGNIFICANT WEATHER AND/OR OBSTRUCTIONS TO VISISBILITY.

NORTHEAST MONTANA


CITY           SKY/WX    TMP DP  RH WIND       PRES   REMARKS
GLASGOW        CLEAR     51  37  58 E14       29.73F
PLENTYWOOD       N/A     51  38  60 E2          N/A
WOLF POINT     CLEAR     44  38  79 NE3       29.76F
JORDAN           N/A     49  35  58 N3        29.76F
WINNETT          N/A     55  33  43 CALM        N/A
SIDNEY         CLEAR     50  41  71 CALM      29.82S
GLENDIVE       CLEAR     52  39  62 SW6       29.82F
MALTA            N/A     50  42  74 NE3         N/A
SCOBEY           N/A     51  36  56 CALM      29.76F

FORT PECK REPORTS


CITY           SKY/WX    TMP DP  RH WIND       PRES   REMARKS
FORT PECK        N/A     63  40  42 SE14        N/A
THE PINES        N/A     59  43  55 S5          N/A

SOUTHEAST MONTANA


CITY           SKY/WX    TMP DP  RH WIND       PRES   REMARKS
BILLINGS       CLEAR     58  31  35 S6        29.81S
MILES CITY     CLEAR     60  42  51 SE12      29.79F
BAKER          CLEAR     49  41  74 E8        29.84F
LIVINGSTON     CLEAR     58  33  39 CALM      29.84F

CENTRAL MONTANA


CITY           SKY/WX    TMP DP  RH WIND       PRES   REMARKS
HAVRE          CLEAR     49  43  80 CALM      29.68F
LEWISTOWN      CLEAR     54  32  43 E6        29.78F
GREAT FALLS    CLEAR     62  33  33 S12       29.70F
CUT BANK       CLEAR     50  28  42 SW3       29.71S
HELENA         CLEAR     58  35  42 N3        29.74F
BUTTE          PTCLDY    55  32  41 SE3       29.85F
BOZEMAN        PTCLDY    53  35  50 S12       29.83F

WESTERN MONTANA


CITY           SKY/WX    TMP DP  RH WIND       PRES   REMARKS
MISSOULA       PTCLDY    49  41  74 CALM      29.71F
KALISPELL      NOT AVBL

NORTH DAKOTA


CITY           SKY/WX    TMP DP  RH WIND       PRES   REMARKS
WILLISTON      CLEAR     58  42  55 S5        29.82R
DICKINSON      CLEAR     52  39  61 SE10      29.85S
MINOT          CLEAR     45  35  68 E7        29.88S
BISMARCK       CLEAR     53  34  48 E9        29.93F

SOUTHERN SASKATCHEWAN


CITY           SKY/WX    TMP DP  RH WIND       PRES   REMARKS
REGINA         CLEAR     48  41  76 SE12      29.75
ESTEVAN        CLEAR     50  41  71 SE8       29.80
SWIFT CURRENT  CLEAR     54  43  66 S14       29.68F





U.S. Dept. of Commerce
NOAA National Weather Service
1325 East West Highway
Silver Spring, MD 20910
E-mail: w-nws.webmaster@noaa.gov
Page last modified: May 16, 2007
NATIONAL WEATHER SERVICE: for Safety, for Work, for Fun - FOR LIFE